FW5428 Weather Reports


Display with metric or nautical units.
time (UTC)temp
F
wind
direction
speed
MPH
gust
MPH
rain 1hr
in
rain 24hr
in
rain mn
in
humidity
%
barometer
mb
20260905225804 51 225 18.0 24.0 0.00 0.00 0.00 62 1025.6
20260905225254 51 225 16.0 24.0 0.00 0.00 0.00 63 1025.4
20260905224743 51 225 20.0 24.0 0.00 0.00 0.00 61 1025.4
20260905224233 51 225 20.0 23.0 0.00 0.00 0.00 59 1025.1
20260905223723 51 225 16.0 24.0 0.00 0.00 0.00 63 1025.1
20260905223213 52 225 14.0 24.0 0.00 0.00 0.00 61 1025.1
20260905222703 52 225 16.0 22.0 0.00 0.00 0.00 61 1024.9
20260905222206 52 225 16.0 23.0 0.00 0.00 0.00 59 1024.9
20260905221643 52 270 15.0 23.0 0.00 0.00 0.00 60 1024.7
20260905221132 53 180 16.0 23.0 0.00 0.00 0.00 59 1024.5
20260905220622 53 225 15.0 23.0 0.00 0.00 0.00 60 1024.6
20260905215602 53 225 20.0 26.0 0.00 0.00 0.00 58 1024.7
20260905215053 53 225 18.0 23.0 0.00 0.00 0.00 55 1024.4
20260905214543 53 225 14.0 24.0 0.00 0.00 0.00 60 1024.1
20260905214032 53 225 16.0 24.0 0.00 0.00 0.00 55 1024.1
20260905213522 53 180 17.0 26.0 0.00 0.00 0.00 54 1024.2
20260905213012 53 225 21.0 27.0 0.00 0.00 0.00 54 1024.1
20260905212501 54 180 16.0 28.0 0.00 0.00 0.00 59 1024.0
20260905211952 54 225 23.0 31.0 0.00 0.00 0.00 52 1024.0
20260905211441 54 180 21.0 31.0 0.00 0.00 0.00 54 1024.0
20260905210421 54 225 19.0 29.0 0.00 0.00 0.00 56 1023.8
20260905205911 54 225 20.0 29.0 0.00 0.00 0.00 58 1023.8
20260905205401 54 180 15.0 29.0 0.00 0.00 0.00 55 1023.8
20260905204851 55 225 21.0 29.0 0.00 0.00 0.00 53 1023.7
20260905204340 55 225 21.0 30.0 0.00 0.00 0.00 59 1023.4
20260905203830 55 180 23.0 30.0 0.00 0.00 0.00 57 1023.5
20260905203320 55 225 18.0 30.0 0.00 0.00 0.00 57 1023.3
20260905202811 55 180 21.0 30.0 0.00 0.00 0.00 55 1023.3
20260905202300 55 225 21.0 30.0 0.00 0.00 0.00 55 1023.2
20260905201750 55 225 21.0 30.0 0.00 0.00 0.00 53 1023.1
20260905201240 55 225 17.0 30.0 0.00 0.00 0.00 59 1023.0
20260905200730 55 225 19.0 32.0 0.00 0.00 0.00 51 1022.8
20260905200220 55 180 23.0 32.0 0.00 0.00 0.00 53 1023.1
20260905195710 55 225 21.0 30.0 0.00 0.00 0.00 54 1023.1
20260905194649 55 180 23.0 36.0 0.00 0.00 0.00 56 1022.9
20260905193630 55 225 23.0 34.0 0.00 0.00 0.00 53 1023.0
20260905193126 55 225 22.0 35.0 0.00 0.00 0.00 58 1022.8
20260905192609 55 225 27.0 35.0 0.00 0.00 0.00 52 1022.9
20260905192059 55 180 21.0 35.0 0.00 0.00 0.00 55 1022.9
20260905191549 55 225 20.0 36.0 0.00 0.00 0.00 53 1022.6
20260905191039 55 270 19.0 40.0 0.00 0.00 0.00 51 1022.6
20260905190530 55 180 30.0 40.0 0.00 0.00 0.00 49 1022.9
20260905185508 55 180 23.0 34.0 0.00 0.00 0.00 47 1022.6
20260905184958 56 180 21.0 33.0 0.00 0.00 0.00 54 1022.7
20260905184448 56 225 26.0 33.0 0.00 0.00 0.00 55 1022.4
20260905183938 56 225 23.0 30.0 0.00 0.00 0.00 55 1022.6
20260905183428 56 135 18.0 30.0 0.00 0.00 0.00 53 1022.7
20260905182918 56 225 23.0 31.0 0.00 0.00 0.00 55 1022.5
20260905182408 56 225 24.0 31.0 0.00 0.00 0.00 55 1022.6
20260905181347 56 180 21.0 34.0 0.00 0.00 0.00 57 1022.5
20260905180838 56 225 27.0 34.0 0.00 0.00 0.00 55 1022.4
20260905180329 56 225 21.0 30.0 0.00 0.00 0.00 61 1022.3
20260905175308 55 180 21.0 31.0 0.00 0.00 0.00 55 1022.6
20260905174757 55 180 24.0 31.0 0.00 0.00 0.00 60 1022.5
20260905174247 55 180 22.0 30.0 0.00 0.00 0.00 60 1022.5
20260905173736 55 180 25.0 30.0 0.00 0.00 0.00 64 1022.5
20260905173226 55 225 15.0 30.0 0.00 0.00 0.00 58 1022.6
20260905172716 55 270 24.0 30.0 0.00 0.00 0.00 61 1022.8
20260905172206 55 225 15.0 34.0 0.00 0.00 0.00 64 1022.9
20260905171657 55 225 24.0 34.0 0.00 0.00 0.00 59 1023.1
20260905171146 55 225 21.0 34.0 0.00 0.00 0.00 61 1022.9
20260905170126 54 225 18.0 25.0 0.00 0.00 0.00 66 1023.2
20260905165616 53 180 19.0 23.0 0.00 0.00 0.00 71 1023.1
20260905165106 53 180 17.0 26.0 0.00 0.00 0.00 73 1023.2
20260905164556 53 180 16.0 26.0 0.00 0.00 0.00 72 1023.3
20260905164049 53 180 23.0 26.0 0.00 0.00 0.00 75 1023.3
20260905163025 53 180 22.0 25.0 0.00 0.00 0.00 71 1023.3
20260905162515 53 180 20.0 24.0 0.00 0.00 0.00 73 1023.3
20260905162005 53 180 17.0 25.0 0.00 0.00 0.00 71 1023.4
20260905161455 53 180 16.0 25.0 0.00 0.00 0.00 72 1023.4
20260905160945 53 180 21.0 25.0 0.00 0.00 0.00 70 1023.5
20260905160434 53 180 17.0 23.0 0.00 0.00 0.00 72 1023.6
20260905155924 53 180 17.0 25.0 0.00 0.00 0.00 71 1023.3
20260905155415 53 180 17.0 25.0 0.00 0.00 0.00 73 1023.5
20260905154905 53 135 20.0 25.0 0.00 0.00 0.00 74 1023.3
20260905153844 53 180 17.0 23.0 0.00 0.00 0.00 74 1023.5
20260905153334 53 180 17.0 23.0 0.00 0.00 0.00 74 1023.6
20260905152823 53 180 15.0 22.0 0.00 0.00 0.00 73 1023.7
20260905152314 52 180 13.0 24.0 0.00 0.00 0.00 73 1023.4
20260905151804 53 180 21.0 26.0 0.00 0.00 0.00 69 1023.5
20260905151254 52 180 16.0 26.0 0.00 0.00 0.00 72 1023.6
20260905150743 52 180 21.0 27.0 0.00 0.00 0.00 71 1023.6
20260905150233 52 180 22.0 27.0 0.00 0.00 0.00 73 1023.5
20260905145723 52 180 20.0 27.0 0.00 0.00 0.00 73 1023.6
20260905145213 52 180 21.0 27.0 0.00 0.00 0.00 71 1023.6
20260905144703 52 180 17.0 27.0 0.00 0.00 0.00 73 1023.7
20260905144152 52 180 23.0 27.0 0.00 0.00 0.00 71 1023.7
20260905143643 52 180 21.0 27.0 0.00 0.00 0.00 73 1023.7
20260905143133 52 180 21.0 24.0 0.00 0.00 0.00 75 1023.6
20260905142623 52 180 17.0 23.0 0.00 0.00 0.00 75 1023.7
20260905142113 52 180 19.0 24.0 0.00 0.00 0.00 76 1023.6
20260905141602 52 180 19.0 24.0 0.00 0.00 0.00 76 1023.8
20260905141053 52 180 16.0 23.0 0.00 0.00 0.00 78 1023.6
20260905140542 52 180 19.0 23.0 0.00 0.00 0.00 80 1023.7
20260905140032 52 180 17.0 23.0 0.00 0.00 0.00 78 1023.6
20260905135522 52 180 20.0 23.0 0.00 0.00 0.00 79 1023.6
20260905135012 52 180 17.0 22.0 0.00 0.00 0.00 79 1023.5
20260905134501 52 180 18.0 22.0 0.00 0.00 0.00 80 1023.6
20260905133952 52 180 17.0 22.0 0.00 0.00 0.00 81 1023.4
20260905133442 52 180 17.0 22.0 0.00 0.00 0.00 81 1023.5
20260905132931 52 180 17.0 22.0 0.00 0.00 0.00 82 1023.4
20260905132421 51 225 15.0 21.0 0.00 0.00 0.00 82 1023.4
20260905131911 51 180 15.0 22.0 0.00 0.00 0.00 81 1023.3
20260905131401 51 180 15.0 22.0 0.00 0.00 0.00 82 1023.2
20260905130341 51 180 11.0 19.0 0.00 0.00 0.00 81 1023.2
20260905125830 50 180 15.0 20.0 0.00 0.00 0.00 80 1023.1
20260905125321 50 180 13.0 20.0 0.00 0.00 0.00 81 1023.1
20260905124810 50 180 11.0 17.0 0.00 0.00 0.00 81 1023.0
20260905124300 50 180 15.0 17.0 0.00 0.00 0.00 80 1022.8
20260905123240 50 180 11.0 15.0 0.00 0.00 0.00 79 1022.6
20260905122730 50 180 11.0 15.0 0.00 0.00 0.00 78 1022.3
20260905122220 50 225 9.0 16.0 0.00 0.00 0.00 78 1022.4
20260905121200 49 225 11.0 19.0 0.00 0.00 0.00 80 1022.4
20260905120650 49 225 15.0 19.0 0.00 0.00 0.00 80 1022.4
20260905115630 48 225 13.0 22.0 0.00 0.00 0.00 81 1022.1
20260905115119 48 225 11.0 20.0 0.00 0.00 0.00 81 1021.9
20260905114619 48 180 11.0 18.0 0.00 0.00 0.00 81 1021.9
20260905114059 48 180 11.0 18.0 0.00 0.00 0.00 80 1021.6
20260905113549 47 225 12.0 17.0 0.00 0.00 0.00 80 1021.8
20260905112529 47 225 11.0 15.0 0.00 0.00 0.00 81 1021.6
20260905112019 47 225 11.0 14.0 0.00 0.00 0.00 82 1021.4
20260905111512 46 225 8.0 14.0 0.00 0.00 0.00 84 1021.4
20260905110958 46 225 5.0 8.0 0.00 0.00 0.00 84 1021.2
20260905110448 46 270 4.0 6.0 0.00 0.00 0.00 84 1021.3
20260905105938 45 270 2.0 6.0 0.00 0.00 0.00 84 1021.3
20260905104918 44 270 3.0 5.0 0.00 0.00 0.00 84 1021.1
20260905102559 43 270 3.0 5.0 0.00 0.00 0.00 85 1020.6
20260905101539 46 270 2.0 7.0 0.00 0.00 0.00 85 1020.6
20260905101028 47 315 2.0 7.0 0.00 0.00 0.00 84 1020.6
20260905100518 50 270 4.0 16.0 0.00 0.00 0.00 81 1020.4
20260905100008 52 270 3.0 16.0 0.00 0.00 0.00 80 1020.2
20260905095458 52 180 12.0 16.0 0.00 0.00 0.00 75 1020.3
20260905094949 53 180 11.0 17.0 0.00 0.00 0.00 78 1020.2
20260905093928 53 180 13.0 21.0 0.00 0.00 0.00 76 1019.9
20260905093417 53 135 16.0 23.0 0.00 0.00 0.00 75 1019.9
20260905092908 53 180 17.0 23.0 0.00 0.00 0.00 75 1019.6
20260905091848 52 180 13.0 19.0 0.00 0.00 0.00 77 1019.3
20260905091338 52 180 15.0 20.0 0.00 0.00 0.00 78 1019.3
20260905090827 52 180 15.0 20.0 0.00 0.00 0.00 77 1019.5
20260905090318 53 180 17.0 20.0 0.00 0.00 0.00 75 1019.1
20260905085807 53 180 17.0 22.0 0.00 0.00 0.00 76 1019.3
20260905083727 53 180 20.0 24.0 0.00 0.00 0.00 75 1018.8
20260905083217 53 180 20.0 25.0 0.00 0.00 0.00 74 1018.7
20260905082706 53 180 18.0 25.0 0.00 0.00 0.00 76 1018.7
20260905082156 53 180 20.0 24.0 0.00 0.00 0.00 75 1018.5
20260905081136 53 180 17.0 24.0 0.00 0.00 0.00 77 1018.3
20260905080625 53 180 18.0 26.0 0.00 0.00 0.00 75 1018.1
20260905080116 54 180 21.0 26.0 0.00 0.00 0.00 75 1017.9
20260905075605 54 180 21.0 28.0 0.00 0.00 0.00 76 1017.8
20260905075055 54 180 22.0 30.0 0.00 0.00 0.00 74 1017.8
20260905074546 54 180 23.0 30.0 0.00 0.00 0.00 72 1017.6
20260905074035 53 180 23.0 29.0 0.00 0.00 0.00 73 1017.8
20260905073525 52 180 24.0 28.0 0.00 0.00 0.00 75 1017.4
20260905073015 52 180 13.0 21.0 0.00 0.00 0.00 81 1017.5
20260905072505 51 180 15.0 23.0 0.00 0.00 0.00 79 1017.6
20260905071955 51 180 15.0 23.0 0.00 0.00 0.00 78 1017.5
20260905071445 51 180 15.0 22.0 0.00 0.00 0.00 78 1017.6
20260905070935 51 180 13.0 23.0 0.00 0.00 0.00 77 1017.6
20260905070425 51 180 17.0 23.0 0.00 0.00 0.00 75 1017.7
20260905065915 52 180 17.0 23.0 0.00 0.00 0.00 75 1017.6
20260905065404 52 225 16.0 24.0 0.00 0.00 0.00 75 1017.5
20260905064854 52 225 17.0 24.0 0.00 0.00 0.00 74 1017.2
20260905064344 53 180 15.0 27.0 0.00 0.00 0.00 76 1017.2
20260905063834 53 225 18.0 27.0 0.00 0.00 0.00 72 1017.2
20260905063324 53 225 22.0 27.0 0.00 0.00 0.00 71 1016.9
20260905062306 52 225 17.0 24.0 0.00 0.00 0.00 72 1017.0
20260905061754 52 270 15.0 26.0 0.00 0.00 0.00 75 1017.4
20260905061243 52 225 20.0 26.0 0.00 0.00 0.00 74 1017.4
20260905060735 52 225 20.0 0.0 0.00 0.00 0.00 74 1017.3
20260905060146 53 225 15.0 0.0 0.00 0.00 0.00 73 1017.3
20260905055836 53 225 17.0 24.0 0.00 0.00 0.00 73 1017.2
20260905055327 52 225 19.0 23.0 0.00 0.00 0.00 74 1017.4
20260905054816 52 180 17.0 21.0 0.00 0.00 0.00 73 1017.2
20260905053755 49 225 16.0 20.0 0.00 0.00 0.00 75 1017.6
20260905053245 48 270 12.0 16.0 0.00 0.00 0.00 79 1017.5
20260905052736 48 270 6.0 15.0 0.00 0.00 0.00 80 1017.6
20260905051205 47 270 5.0 13.0 0.00 0.00 0.00 77 1017.6
20260905050655 47 270 8.0 13.0 0.00 0.00 0.00 79 1017.6
20260905050145 47 270 7.0 10.0 0.00 0.00 0.00 80 1017.6
20260905045635 47 270 4.0 9.0 0.00 0.00 0.00 80 1017.5
20260905045124 47 270 4.0 12.0 0.00 0.00 0.00 79 1017.6
20260905044621 46 270 4.0 15.0 0.00 0.00 0.00 79 1017.7
20260905044105 46 270 7.0 15.0 0.00 0.00 0.00 81 1017.6
20260905043554 46 270 5.0 10.0 0.00 0.00 0.00 83 1017.5
20260905042534 47 0 5.0 9.0 0.00 0.00 0.00 81 1017.0
20260905042024 47 180 4.0 8.0 0.00 0.00 0.00 80 1017.2
20260905041524 47 0 4.0 8.0 0.00 0.00 0.00 80 1017.2
20260905041003 47 315 4.0 8.0 0.00 0.00 0.00 81 1017.1
20260905040453 47 0 4.0 9.0 0.00 0.00 0.00 80 1017.1
20260905035433 48 0 4.0 11.0 0.00 0.00 0.00 78 1017.0
20260905034923 48 270 4.0 12.0 0.00 0.00 0.00 78 1016.9
20260905034414 48 0 4.0 12.0 0.00 0.00 0.00 77 1017.1
20260905033903 48 0 8.0 11.0 0.00 0.00 0.00 77 1017.0
20260905033354 48 0 7.0 11.0 0.00 0.00 0.00 77 1017.2
20260905032843 48 0 5.0 11.0 0.00 0.00 0.00 77 1017.2
20260905032332 49 0 5.0 11.0 0.00 0.00 0.00 77 1016.9
20260905031822 49 0 7.0 11.0 0.00 0.00 0.00 76 1017.0
20260905030803 49 0 6.0 10.0 0.00 0.00 0.00 75 1017.0
20260905030252 50 0 5.0 9.0 0.00 0.00 0.00 75 1016.7
20260905025742 51 0 7.0 10.0 0.00 0.00 0.00 73 1016.9
20260905025232 51 315 5.0 10.0 0.00 0.00 0.00 72 1016.8
20260905024722 52 0 6.0 10.0 0.00 0.00 0.00 71 1016.8
20260905024215 52 0 5.0 8.0 0.00 0.00 0.00 69 1016.7
20260905023701 53 0 4.0 9.0 0.00 0.00 0.00 67 1016.6
20260905023151 53 0 4.0 9.0 0.00 0.00 0.00 65 1016.6
20260905022641 53 0 4.0 9.0 0.00 0.00 0.00 65 1016.5
20260905022135 53 45 5.0 8.0 0.00 0.00 0.00 67 1016.5
20260905021621 52 0 4.0 10.0 0.00 0.00 0.00 64 1016.5
20260905021113 52 0 4.0 10.0 0.00 0.00 0.00 67 1016.6
20260905020601 51 0 4.0 8.0 0.00 0.00 0.00 68 1016.7
20260905020051 52 0 3.0 6.0 0.00 0.00 0.00 71 1016.7
20260905015541 53 0 4.0 6.0 0.00 0.00 0.00 71 1016.5
20260905015031 53 0 4.0 5.0 0.00 0.00 0.00 68 1016.5
20260905014520 54 0 3.0 6.0 0.00 0.00 0.00 67 1016.7
20260905014010 54 0 4.0 6.0 0.00 0.00 0.00 63 1016.5
20260905013500 54 0 4.0 8.0 0.00 0.00 0.00 63 1016.5
20260905012950 53 0 4.0 8.0 0.00 0.00 0.00 64 1016.5
20260905012440 53 0 3.0 6.0 0.00 0.00 0.00 68 1016.4
20260905011929 53 0 3.0 6.0 0.00 0.00 0.00 67 1016.5
20260905011420 53 0 3.0 5.0 0.00 0.00 0.00 68 1016.5
20260905010910 53 0 3.0 4.0 0.00 0.00 0.00 68 1016.3
20260905010359 53 0 3.0 4.0 0.00 0.00 0.00 67 1016.3
20260905005849 54 0 2.0 5.0 0.00 0.00 0.00 65 1016.2
20260905005339 54 45 3.0 5.0 0.00 0.00 0.00 64 1016.1
20260905004829 54 0 3.0 4.0 0.00 0.00 0.00 66 1016.4
20260905004319 54 0 2.0 4.0 0.00 0.00 0.00 66 1016.3
20260905003259 55 0 3.0 4.0 0.00 0.00 0.00 67 1016.2
20260905002751 55 0 2.0 4.0 0.00 0.00 0.00 63 1016.3
20260905002239 56 0 2.0 4.0 0.00 0.00 0.00 63 1016.2
20260905001728 56 0 3.0 4.0 0.00 0.00 0.00 62 1016.2
20260905001219 56 0 3.0 4.0 0.00 0.00 0.00 62 1016.2
20260905000709 56 0 3.0 4.0 0.00 0.00 0.00 62 1016.2
20260905000159 56 0 3.0 4.0 0.00 0.00 0.00 61 1016.3
20260904235648 56 0 3.0 4.0 0.00 0.00 0.00 61 1016.4
20260904235138 56 0 2.0 4.0 0.00 0.00 0.00 62 1016.3
20260904234628 56 0 2.0 4.0 0.00 0.00 0.00 63 1016.2
20260904234117 57 0 2.0 4.0 0.00 0.00 0.00 62 1016.2
20260904233607 57 0 2.0 3.0 0.00 0.00 0.00 60 1016.3
20260904233058 57 0 2.0 3.0 0.00 0.00 0.00 59 1016.2
20260904232548 57 0 2.0 4.0 0.00 0.00 0.00 60 1016.1
20260904232037 57 0 2.0 4.0 0.00 0.00 0.00 60 1016.2
20260904231528 58 0 2.0 4.0 0.00 0.00 0.00 60 1016.0
20260904231017 58 0 2.0 3.0 0.00 0.00 0.00 59 1016.0